This demonstration page uses our WeatherBlox Daily Observations layout. Learn more.

Left ArrowRight Arrow

44.8408, -93.29828

Hourly Observations for March 3, 2015

Temp ( °F °C ) Dew Point ( °F °C ) Humidity (%) Winds ( mph kmh ) Pressure ( in mb ) Visibility ( mi km ) Precip ( " mm )
12:53 am 00:53 Cloudy 22 -5.6 10 -12.2 60 60 SE 7 11 30.03 1017 10 16 0.00 0.00
1:53 am 01:53 Cloudy 22 -5.6 11 -11.7 63 63 SE 8 13 29.98 1015 10 16 0.00 0.00
2:53 am 02:53 Cloudy 22 -5.6 11 -11.7 63 63 SE 6 9 29.93 1014 10 16 0.00 0.00
3:53 am 03:53 Cloudy 22 -5.6 12 -11.1 66 66 SE 9 15 29.87 1012 10 16 0.00 0.00
4:53 am 04:53 Cloudy 22 -5.6 12 -11.1 66 66 SE 8 13 29.83 1010 10 16 0.00 0.00
5:47 am 05:47 Cloudy 21 -6 12 -11 68 68 ESE 6 9 29.83 1010 10 16 0.00 0.00
5:53 am 05:53 Cloudy 22 -5.6 13 -10.6 68 68 SE 7 11 29.79 1009 9 14 0.00 0.00
6:53 am 06:53 Cloudy 22 -5.6 14 -10 71 71 ESE 8 13 29.75 1007 8 13 0.00 0.00
7:14 am 07:14 Cloudy with Light Snow 21 -6 16 -9 80 80 SSE 7 11 29.80 1009 3 4 0.00 0.00
7:18 am 07:18 Cloudy with Light Snow 22 -5.6 15 -9.4 75 75 SSE 7 11 29.80 1009 1 2 0.00 0.03
7:23 am 07:23 Cloudy with Light Snow 22 -5.6 16 -8.9 78 78 SSE 7 11 29.80 1009 1 1 0.00 0.03
7:39 am 07:39 Mostly Cloudy with Light Snow 21 -6.1 17 -8.3 85 85 S 5 7 29.83 1010 1 1 0.01 0.25
7:53 am 07:53 Mostly Cloudy with Light Snow 21 -6 18 -8 86 86 SSE 3 6 29.80 1009 1 1 0.00 0.00
8:19 am 08:19 Mostly Cloudy with Light Snow 21 -6.1 18 -7.8 88 88 ESE 6 9 29.80 1009 1 1 0.03 0.76
8:53 am 08:53 Mostly Cloudy with Light Snow 21 -6.1 18 -7.8 88 88 ESE 5 7 29.74 1007 1 1 0.05 1.27
9:03 am 09:03 Cloudy with Light Snow 21 -6 19 -7 93 93 SE 5 7 29.80 1009 2 2 0.00 0.00
9:10 am 09:10 Cloudy with Light Snow 22 -5.6 19 -7.2 89 89 SE 3 6 29.80 1009 2 3 0.01 0.25
9:24 am 09:24 Cloudy with Light Snow 21 -6 19 -7 93 93 SE 5 7 29.74 1007 2 2 0.00 0.00
9:34 am 09:34 Cloudy with Light Snow 22 -5.6 19 -7.2 89 89 SE 5 7 29.74 1007 1 2 0.02 0.51
9:42 am 09:42 Cloudy with Snow 23 -5 19 -7 86 86 Calm 29.74 1007 1 1 0.00 0.00
9:53 am 09:53 Cloudy with Light Snow 23 -5 21 -6.1 92 92 Calm 29.71 1006 1 1 0.02 0.51
10:00 am 10:00 Mostly Cloudy with Light Snow 23 -5 21 -6 93 93 SW 3 6 29.74 1007 1 2 0.00 0.00
10:13 am 10:13 Cloudy with Light Snow 24 -4.4 21 -6.1 88 88 SW 3 6 29.74 1007 2 3 0.02 0.51
10:25 am 10:25 Cloudy with Light Snow 25 -3.9 20 -6.7 81 81 SW 6 9 29.74 1007 2 2 0.02 0.51
10:30 am 10:30 Cloudy with Light Snow 25 -4 19 -7 80 80 WSW 7 11 29.74 1007 1 2 0.00 0.00
10:53 am 10:53 Cloudy with Light Snow 26 -3.3 22 -5.6 84 84 SW 7 11 29.71 1006 2 2 0.03 0.76
10:58 am 10:58 Cloudy with Light Snow 26 -3.3 22 -5.6 84 84 WSW 10 17 29.74 1007 3 5 0.00 0.03
11:15 am 11:15 Cloudy with Light Snow 27 -2.8 22 -5.6 81 81 WSW 9 15 29.74 1007 2 2 0.00 0.03
11:25 am 11:25 Cloudy with Light Snow 27 -2.8 22 -5.6 81 81 W 12 19 29.74 1007 2 3 0.00 0.03
11:37 am 11:37 Cloudy with Light Snow 28 -2.2 23 -5 81 81 W 12 19 29.74 1007 3 5 0.00 0.03
11:53 am 11:53 Cloudy with Light Snow 28 -2.2 22 -5.6 78 78 W 10 17 29.71 1006 5 8 0.00 0.03
12:10 pm 12:10 Cloudy with Light Snow 28 -2 21 -6 74 74 W 15 24 29.74 1007 9 14 0.00 0.00
1:53 pm 13:53 Cloudy with Light Snow 28 -2.2 21 -6.1 75 75 WNW 16 26 29.72 1006 9 14 0.01 0.25
2:53 pm 14:53 Partly Cloudy 27 -2.8 15 -9.4 61 61 NW 21 33 29.75 1008 10 16 0.00 0.03
3:53 pm 15:53 Mostly Sunny 26 -3.3 11 -11.7 53 53 NW 22 35 29.78 1009 10 16 0.00 0.00
4:53 pm 16:53 Mostly Sunny 23 -5 10 -12.2 57 57 W 22 35 29.82 1010 10 16 0.00 0.00
5:53 pm 17:53 Mostly Sunny 18 -7.8 8 -13.3 65 65 W 21 33 29.88 1012 10 16 0.00 0.00
6:53 pm 18:53 Partly Cloudy 15 -9.4 4 -15.6 61 61 WNW 17 28 29.93 1014 10 16 0.00 0.00
7:53 pm 19:53 Mostly Clear 13 -10.6 3 -16.1 64 64 WNW 22 35 29.97 1015 10 16 0.00 0.00
8:53 pm 20:53 Partly Cloudy 11 -11.7 0 -17.8 61 61 WNW 18 30 30.01 1016 10 16 0.00 0.00
9:53 pm 21:53 Clear 9 -12.8 -2 -18.9 61 61 WNW 18 30 30.04 1017 10 16 0.00 0.00
10:53 pm 22:53 Mostly Clear 8 -13.3 -2 -18.9 63 63 NW 16 26 30.05 1018 10 16 0.00 0.00
11:53 pm 23:53 Mostly Clear 6 -14.4 -3 -19.4 66 66 WNW 15 24 30.07 1018 10 16 0.00 0.00

Powered by AerisWeather